DW8947 Weather Reports


Display with metric or nautical units.
time (UTC)temp
F
wind
direction
speed
MPH
gust
MPH
rain 1hr
in
rain 24hr
in
rain mn
in
humidity
%
barometer
mb
20260505205704 63 209 1.0 1.0 0.00 0.00 0.00 73 1014.5
20260505204704 62 207 1.0 2.0 0.00 0.00 0.00 74 1014.6
20260505204205 62 244 1.0 2.0 0.00 0.00 0.00 76 1014.6
20260505203204 61 245 1.0 2.0 0.00 0.00 0.00 75 1014.7
20260505202704 61 260 0.0 2.0 0.00 0.00 0.00 76 1014.7
20260505202205 61 301 1.0 2.0 0.00 0.00 0.00 76 1014.7
20260505200204 60 268 1.0 2.0 0.00 0.00 0.00 78 1014.7
20260505195705 59 285 1.0 1.0 0.00 0.00 0.00 78 1014.7
20260505194205 60 174 1.0 2.0 0.00 0.00 0.00 77 1014.6
20260505193704 60 10 1.0 3.0 0.00 0.00 0.00 78 1014.7
20260505193204 60 214 0.0 1.0 0.00 0.00 0.00 78 1014.7
20260505192705 60 204 1.0 2.0 0.00 0.00 0.00 78 1014.6
20260505192205 60 168 0.0 2.0 0.00 0.00 0.00 78 1014.7
20260505191205 59 168 0.0 2.0 0.00 0.00 0.00 78 1014.6
20260505190704 59 199 0.0 2.0 0.00 0.00 0.00 79 1014.7
20260505190204 59 162 0.0 2.0 0.00 0.00 0.00 78 1014.6
20260505185704 59 162 1.0 2.0 0.00 0.00 0.00 79 1014.6
20260505184204 59 117 0.0 2.0 0.00 0.00 0.00 79 1014.5
20260505180704 58 163 0.0 1.0 0.00 0.00 0.00 81 1014.4
20260505175204 58 218 0.0 2.0 0.00 0.00 0.00 81 1014.5
20260505174704 58 218 0.0 2.0 0.00 0.00 0.00 82 1014.5
20260505174204 58 218 0.0 1.0 0.00 0.00 0.00 81 1014.4
20260505173704 58 218 0.0 2.0 0.00 0.00 0.00 81 1014.4
20260505172704 58 218 0.0 2.0 0.00 0.00 0.00 80 1014.5
20260505171704 57 179 0.0 2.0 0.00 0.00 0.00 82 1014.4
20260505171204 57 179 0.0 2.0 0.00 0.00 0.00 82 1014.4
20260505170704 57 139 0.0 2.0 0.00 0.00 0.00 81 1014.4
20260505165704 57 139 0.0 2.0 0.00 0.00 0.00 82 1014.3
20260505164705 57 139 0.0 2.0 0.00 0.00 0.00 83 1014.3
20260505163204 56 144 0.0 2.0 0.00 0.00 0.00 83 1014.1
20260505162705 56 144 0.0 1.0 0.00 0.00 0.00 83 1014.2
20260505162204 56 144 0.0 2.0 0.00 0.00 0.00 83 1014.2
20260505161705 56 144 0.0 2.0 0.00 0.00 0.00 84 1014.1
20260505161204 56 144 0.0 2.0 0.00 0.00 0.00 85 1014.1
20260505153204 55 163 0.0 2.0 0.00 0.00 0.00 85 1013.9
20260505152704 55 163 0.0 1.0 0.00 0.00 0.00 85 1013.9
20260505152204 55 163 0.0 1.0 0.00 0.00 0.00 85 1013.8
20260505151704 55 163 0.0 1.0 0.00 0.00 0.00 85 1013.7
20260505151204 55 244 0.0 2.0 0.00 0.00 0.00 85 1013.6
20260505123704 55 214 0.0 2.0 0.00 0.00 0.00 88 1012.1
20260505123204 55 217 0.0 2.0 0.00 0.00 0.00 88 1012.0
20260505122205 55 228 0.0 2.0 0.00 0.00 0.00 88 1011.9
20260505120704 55 223 0.0 2.0 0.00 0.00 0.00 88 1011.9
20260505115705 55 223 0.0 2.0 0.00 0.00 0.00 88 1011.8
20260505115204 55 223 0.0 2.0 0.00 0.00 0.00 88 1011.8
20260505114704 55 246 0.0 1.0 0.00 0.00 0.00 88 1011.8
20260505112204 55 246 0.0 2.0 0.00 0.00 0.00 88 1011.6
20260505111704 55 239 0.0 2.0 0.00 0.00 0.00 88 1011.6
20260505110204 55 239 0.0 2.0 0.00 0.00 0.00 88 1011.5
20260505101204 54 61 0.0 2.0 0.00 0.00 0.00 90 1011.1
20260505100204 54 61 0.0 2.0 0.00 0.00 0.00 90 1011.0
20260505095704 54 61 0.0 2.0 0.00 0.00 0.00 90 1011.1
20260505093704 54 158 0.0 2.0 0.00 0.00 0.00 90 1010.9
20260505092704 54 158 0.0 0.0 0.00 0.00 0.00 90 1010.8
20260505092204 54 158 0.0 0.0 0.00 0.00 0.00 90 1010.8
20260505091204 54 158 0.0 2.0 0.00 0.00 0.00 90 1010.8
20260505085204 54 158 0.0 2.0 0.00 0.00 0.00 89 1010.6
20260505083704 54 167 0.0 2.0 0.00 0.00 0.00 89 1010.6
20260505081204 55 167 0.0 2.0 0.00 0.00 0.00 88 1010.4
20260505080204 55 167 0.0 2.0 0.00 0.00 0.00 88 1010.4
20260505075704 55 167 0.0 0.0 0.00 0.00 0.00 88 1010.4
20260505075204 55 167 0.0 0.0 0.00 0.00 0.00 88 1010.4
20260505074704 55 167 0.0 1.0 0.00 0.00 0.00 87 1010.4
20260505073204 55 167 0.0 1.0 0.00 0.00 0.00 87 1010.2
20260505072204 55 167 0.0 2.0 0.00 0.00 0.00 86 1010.0
20260505070204 56 167 0.0 2.0 0.00 0.00 0.00 85 1009.9
20260505065204 56 167 0.0 2.0 0.00 0.00 0.00 85 1009.8
20260505064704 56 167 0.0 2.0 0.00 0.00 0.00 84 1009.9
20260505064204 57 167 0.0 2.0 0.00 0.00 0.00 84 1009.8
20260505061704 58 102 0.0 2.0 0.00 0.00 0.00 81 1009.5
20260505060705 59 155 0.0 2.0 0.00 0.00 0.00 80 1009.3
20260505055705 59 343 0.0 2.0 0.00 0.00 0.00 79 1009.2
20260505052204 61 337 0.0 2.0 0.00 0.00 0.00 74 1008.8
20260505051704 61 337 0.0 2.0 0.00 0.00 0.00 73 1008.8
20260505041704 64 337 0.0 0.0 0.00 0.00 0.00 66 1008.3
20260505041204 64 337 0.0 0.0 0.00 0.00 0.00 66 1008.3
20260505040704 64 337 0.0 0.0 0.00 0.00 0.00 66 1008.2
20260505035204 65 331 0.0 2.0 0.00 0.00 0.00 64 1008.0
20260505034704 65 331 0.0 2.0 0.00 0.00 0.00 64 1007.9
20260505034204 66 85 0.0 2.0 0.00 0.00 0.00 64 1008.0
20260505033204 67 85 0.0 2.0 0.00 0.00 0.00 62 1007.8
20260505032204 67 85 0.0 0.0 0.00 0.00 0.00 61 1007.7
20260505031704 67 85 0.0 0.0 0.00 0.00 0.00 62 1007.6
20260505031204 68 85 0.0 0.0 0.00 0.00 0.00 64 1007.6
20260505030704 68 85 0.0 0.0 0.00 0.00 0.00 62 1007.6
20260505025704 68 85 0.0 0.0 0.00 0.00 0.00 62 1007.5
20260505025204 69 85 0.0 0.0 0.00 0.00 0.00 61 1007.4
20260505023204 69 85 0.0 0.0 0.00 0.00 0.00 58 1007.4
20260505022204 70 85 0.0 0.0 0.00 0.00 0.00 59 1007.4
20260505015704 71 85 0.0 1.0 0.00 0.00 0.00 59 1007.4
20260505015204 72 85 0.0 2.0 0.00 0.00 0.00 59 1007.4
20260505014704 72 85 0.0 2.0 0.00 0.00 0.00 59 1007.4
20260505012704 73 34 0.0 1.0 0.00 0.00 0.00 57 1007.4
20260505012205 73 20 0.0 2.0 0.00 0.00 0.00 56 1007.4
20260505011704 74 20 0.0 2.0 0.00 0.00 0.00 53 1007.5
20260505011204 74 20 0.0 0.0 0.00 0.00 0.00 54 1007.5
20260505005704 74 20 0.0 2.0 0.00 0.00 0.00 53 1007.5
20260505003704 74 20 0.0 2.0 0.00 0.00 0.00 52 1007.5
20260505003204 74 20 0.0 2.0 0.00 0.00 0.00 52 1007.5
20260505002704 74 4 0.0 1.0 0.00 0.00 0.00 52 1007.5
20260505002204 74 4 0.0 2.0 0.00 0.00 0.00 52 1007.5
20260504235704 74 171 0.0 2.0 0.00 0.00 0.00 49 1007.5
20260504235204 74 158 0.0 2.0 0.00 0.00 0.00 49 1007.5
20260504234704 74 12 1.0 2.0 0.00 0.00 0.00 51 1007.5
20260504234204 75 162 0.0 2.0 0.00 0.00 0.00 50 1007.5
20260504233705 75 162 0.0 2.0 0.00 0.00 0.00 48 1007.5
20260504232703 76 212 0.0 2.0 0.00 0.00 0.00 49 1007.5
20260504231704 77 203 0.0 2.0 0.00 0.00 0.00 47 1007.5
20260504230704 77 180 0.0 2.0 0.00 0.00 0.00 48 1007.6
20260504230204 77 210 1.0 2.0 0.00 0.00 0.00 47 1007.6
20260504225704 76 158 0.0 2.0 0.00 0.00 0.00 47 1007.7
20260504225204 77 158 1.0 2.0 0.00 0.00 0.00 50 1007.7
20260504224204 76 225 0.0 2.0 0.00 0.00 0.00 49 1007.8
20260504223204 76 168 1.0 2.0 0.00 0.00 0.00 49 1007.9
20260504222203 76 181 1.0 2.0 0.00 0.00 0.00 51 1007.9
20260504221204 76 172 0.0 2.0 0.00 0.00 0.00 50 1008.1
20260504220204 76 185 0.0 2.0 0.00 0.00 0.00 52 1008.2
20260504215204 75 174 1.0 2.0 0.00 0.00 0.00 53 1008.3
20260504212204 75 190 0.0 2.0 0.00 0.00 0.00 53 1008.6